Home   Weather   Irving   Past weeks

Flag for USA Past Weather in Irving, Texas, USA — Yesterday and Last 2 Weeks

Now
84 °F

Passing clouds.


Feels Like: 81 °F
Forecast: 50 / 82 °F
Wind: 18 mph from South

Location: Dallas / Fort Worth International Airport

Current Time: Feb 22, 2017 at 4:40:18 pm

Latest Report: Feb 22, 2017 at 3:53 pm


Visibility: 10 mi

Pressure: 29.70 "Hg

Humidity: 19%

Dew Point: 37 °F

Location of IrvingLocation

Past Weather in Irving — Graph

°F

Irving Temperature Yesterday

Maximum temperature yesterday: 77 °F (at 2:53 pm)
Minimum temperature yesterday: 52 °F (at 3:19 am)
Average temperature yesterday: 63 °F

High & Low Weather Summary for the Past Weeks

 TemperatureHumidityPressure
High88 °F (Feb 11, 3:53 pm)100% (Feb 19, 8:20 am)30.41 "Hg (Feb 19, 8:20 am)
Low36 °F (Feb 9, 6:53 am)17% (Feb 7, 4:53 pm)29.58 "Hg (Feb 8, 4:53 am)
Average60 °F64%29.95 "Hg
* Reported Feb 7 2:53 pm — Feb 22 2:53 pm, Irving, Weather by CustomWeather, © 2017

Note: Actual official high and low records may vary slightly from our data, if they occured in-between our weather recording intervals... More about our weather records

Advertising

Irving Weather History for the Previous 24 Hours

Scroll right to see more
 ConditionsComfort  
Time TempWeatherWind HumidityBarometerVisibility
2:53 pm
Wed, Feb 22
86 °FPassing clouds.15 mph19%29.72 "Hg10 mi
1:53 pm83 °FPassing clouds.14 mph20%29.76 "Hg10 mi
12:53 pm80 °FPassing clouds.13 mph25%29.81 "Hg10 mi
11:53 am77 °FPassing clouds.7 mph26%29.84 "Hg10 mi
10:53 am73 °FPassing clouds.10 mph36%29.86 "Hg10 mi
9:53 am67 °FPassing clouds.7 mph42%29.88 "Hg10 mi
8:53 am58 °FPassing clouds.5 mph65%29.88 "Hg10 mi
7:53 am54 °FPassing clouds.5 mph69%29.88 "Hg10 mi
6:53 am49 °FClear.6 mph74%29.88 "Hg10 mi
5:53 am51 °FClear.No wind69%29.88 "Hg10 mi
4:53 am51 °FClear.No wind69%29.87 "Hg10 mi
3:53 am50 °FClear.No wind68%29.87 "Hg10 mi
2:53 am51 °FClear.No wind69%29.88 "Hg10 mi
1:53 am53 °FClear.No wind61%29.90 "Hg10 mi
12:53 am53 °FClear.7 mph61%29.90 "Hg10 mi
11:53 pm
Tue, Feb 21
57 °FClear.9 mph53%29.91 "Hg10 mi
10:53 pm62 °FClear.13 mph44%29.93 "Hg10 mi
9:53 pm66 °FClear.13 mph37%29.92 "Hg10 mi
8:53 pm68 °FClear.12 mph36%29.92 "Hg10 mi
7:53 pm68 °FPassing clouds.9 mph40%29.90 "Hg10 mi
6:53 pm68 °FClear.7 mph40%29.89 "Hg10 mi
5:53 pm73 °FPassing clouds.12 mph34%29.88 "Hg10 mi
4:53 pm76 °FSunny.15 mph32%29.87 "Hg10 mi
Weather by CustomWeather, © 2017

See weather overviewHow to use our weather pages